Observations for Trim Market St
| Time | AQI | Temp °C | Hum % | Pres Pa | CO μg/m³ | H₂S μg/m³ | NO μg/m³ | NO₂ μg/m³ | O₃ μg/m³ | SO₂ μg/m³ | PM1 μg/m³ | PM2.5 μg/m³ | PM10 μg/m³ |
|---|---|---|---|---|---|---|---|---|---|---|---|---|---|
| Monday 24 August 2026 | |||||||||||||
| 05:59 | 1 | 8.1 | 79 | 34,757 | 0.66 | 0 | 9.98 | 15.14 | 0 | 0 | 3.56 | 4.52 | 7.53 |
| 05:58 | 1 | 8.1 | 79 | 34,724 | 0.72 | 0 | 11.42 | 15.26 | 0 | 0 | 3.56 | 4.04 | 8.68 |
| 05:57 | 1 | 8.1 | 79 | 34,695 | 0.78 | 0 | 10.38 | 15.26 | 0 | 0 | 2.85 | 4.52 | 7.53 |
| 05:56 | 1 | 8.1 | 79 | 34,617 | 0.78 | 0 | 10.41 | 15.26 | 0 | 0 | 2.85 | 3.1 | 6.96 |
| 05:55 | 1 | 8.1 | 79 | 34,548 | 0.66 | 0 | 9.65 | 14.75 | 0 | 0 | 3.56 | 4.52 | 7.53 |
| 05:54 | 1 | 8.1 | 79 | 34,458 | 0.66 | 0 | 8.79 | 14.75 | 0 | 0 | 3.56 | 4.99 | 8.1 |
| 05:53 | 1 | 8.1 | 79 | 34,393 | 0.67 | 0 | 9.59 | 14.49 | 0 | 0 | 3.56 | 4.52 | 8.1 |
| 05:52 | 1 | 8.2 | 79 | 34,329 | 0.68 | 0 | 8.58 | 14.8 | 0.44 | 0 | 3.56 | 5.46 | 8.68 |
| 05:51 | 1 | 8.1 | 79 | 34,237 | 0.66 | 0 | 9.41 | 15.14 | 0 | 0 | 2.85 | 4.04 | 6.96 |
| 05:50 | 1 | 8.2 | 79 | 34,157 | 0.64 | 0 | 9.99 | 14.8 | 0.62 | 0 | 2.85 | 4.52 | 7.53 |
| 05:49 | 1 | 8.2 | 79 | 34,093 | 0.65 | 0 | 12 | 14.8 | 0 | 0 | 3.56 | 4.99 | 8.1 |
| 05:48 | 1 | 8.2 | 79 | 34,041 | 0.65 | 0 | 11.14 | 15.56 | 2.45 | 0 | 3.56 | 3.57 | 6.39 |
| 05:47 | 1 | 8.2 | 79 | 33,982 | 0.68 | 0 | 12.56 | 15.31 | 4.84 | 0 | 2.85 | 3.57 | 6.96 |
| 05:45 | 1 | 8.2 | 79 | 33,878 | 0.7 | 0 | 13.89 | 15.69 | 0.36 | 0 | 3.56 | 5.94 | 9.25 |
| 05:44 | 1 | 8.2 | 79 | 33,873 | 0.66 | 0 | 14.5 | 14.54 | 2.67 | 0 | 2.85 | 4.04 | 8.68 |
| 05:43 | 1 | 8.3 | 79 | 33,880 | 0.65 | 0 | 13.52 | 14.2 | 2.91 | 0 | 4.28 | 4.99 | 8.1 |
| 05:42 | 1 | 8.3 | 79 | 33,884 | 0.65 | 0 | 13.39 | 13.91 | 2.82 | 0 | 4.28 | 4.52 | 8.1 |
| 05:41 | 1 | 8.3 | 79 | 33,878 | 0.64 | 0 | 10.67 | 13.91 | 4.92 | 0 | 4.28 | 5.46 | 9.25 |
| 05:40 | 1 | 8.3 | 79 | 33,866 | 0.65 | 0 | 8.37 | 13.73 | 4.58 | 0 | 3.56 | 4.99 | 8.1 |
| 05:39 | 1 | 8.3 | 79 | 33,882 | 0.64 | 0 | 6.64 | 14.46 | 4.55 | 0 | 3.56 | 4.99 | 8.68 |